Location: Drummondville
(45.8830°N, 72.4830°W)
Time: 09:53:42
(UTC-05:00)

N. Korean satellite - Pass Details

Date: 14 November 2017
Orbit: 460 x 514 km, 97.2° (Epoch: 24 November)

Event Time Altitude Azimuth Distance (km) Brightness Sun altitude
Rises 18:47:51 0° 207° (SSW) 2,479 10.5 -25.8°
Reaches altitude 10° 18:50:34 10° 232° (SW) 1,616 9.8 -26.3°
Maximum altitude 18:52:38 15° 269° (W) 1,344 9.7 -26.6°
Drops below altitude 10° 18:54:45 10° 306° (NW) 1,638 9.9 -27.0°
Sets 18:57:32 0° 330° (NNW) 2,532 10.6 -27.5°
